Home > Weather > Thousand Oaks > Past weeks

Flag for USA Past Weather in Thousand Oaks, California, USA — Yesterday and Last 2 Weeks

Now
59 °F

Fog.


Feels Like: 59 °F
Forecast: 60 / 80 °F
Wind: No wind

Location: Camarillo Airport

Current Time: Aug 25, 2016 at 6:25:45 AM

Latest Report: Aug 25, 2016 at 5:55 AM


Visibility: 6 mi

Pressure: 29.96 "Hg

Humidity: 93%

Dew Point: 57 °F

Location of Thousand OaksLocation

Past Weather in Thousand Oaks — Graph

°F

Thousand Oaks Temperature Yesterday

Maximum temperature yesterday: 77 °F (at 1:55 PM)
Minimum temperature yesterday: 60 °F (at 5:55 AM)
Average temperature yesterday: 67 °F

High & Low Weather Summary for the Past Weeks

 TemperatureHumidityPressure
High79 °F (Aug 14, 11:55 AM)100% (Aug 15, 3:04 AM)30.07 "Hg (Aug 15, 3:04 AM)
Low58 °F (Aug 17, 5:55 AM)48% (Aug 17, 2:55 PM)29.84 "Hg (Aug 17, 5:55 PM)
Average68 °F78%29.94 "Hg
* Reported Aug 10 4:55 AM — Aug 25 4:55 AM, Thousand Oaks, Weather by CustomWeather, © 2016

Note: Actual official high and low records may vary slightly from our data, if they occured in-between our weather recording intervals... More about our weather records

Advertising

Thousand Oaks Weather History for the Previous 24 Hours

Scroll right to see more
 ConditionsComfort  
Time TempWeatherWind HumidityBarometerVisibility
4:55 AM
Thu, Aug 25
60 °FClear.No wind86%29.95 "Hg8 mi
3:55 AM60 °FClear.No wind90%29.96 "Hg8 mi
2:55 AM62 °FClear.No wind86%29.96 "Hg8 mi
1:55 AM62 °FClear.No wind86%29.96 "Hg8 mi
12:55 AM62 °FPassing clouds.No wind86%29.97 "Hg8 mi
11:55 PM
Wed, Aug 24
63 °FClear.No wind87%29.97 "Hg8 mi
10:55 PM63 °FClear.No wind87%29.97 "Hg8 mi
9:55 PM64 °FClear.3 mph84%29.97 "Hg8 mi
8:55 PM64 °FClear.5 mph84%29.96 "Hg8 mi
7:55 PM65 °FSunny.6 mph81%29.96 "Hg9 mi
6:55 PM67 °FSunny.7 mph76%29.95 "Hg9 mi
5:55 PM70 °FSunny.9 mph68%29.95 "Hg10 mi
4:55 PM72 °FSunny.8 mph61%29.96 "Hg10 mi
3:55 PM75 °FSunny.9 mph55%29.98 "Hg10 mi
2:55 PM77 °FSunny.12 mph50%29.99 "Hg10 mi
1:55 PM77 °FSunny.12 mph52%30.01 "Hg10 mi
12:55 PM76 °FSunny.10 mph58%30.03 "Hg10 mi
11:55 AM76 °FSunny.9 mph56%30.05 "Hg10 mi
10:55 AM75 °FSunny.6 mph55%30.06 "Hg10 mi
9:55 AM71 °FSunny.5 mph68%30.06 "Hg9 mi
8:55 AM68 °FSunny.No wind76%30.06 "Hg9 mi
7:55 AM64 °FSunny.No wind84%30.06 "Hg7 mi
6:55 AM61 °FClear.No wind87%30.05 "Hg8 mi
Weather by CustomWeather, © 2016

See weather overviewHow to use our weather pages